Location: Unspecified
(49.9820°N, 20.4363°E)
Time: 05:05:54
(UTC+01:00)

ISS - Pass Details

Date: 14 January 2018
Orbit: 402 x 407 km, 51.6° (Epoch: 22 January)

Event Time Altitude Azimuth Distance (km) Brightness Sun altitude
Exits shadow 04:43:50 18° 135° (SE) 1,069 -1.2 -26.2°
Drops below altitude 10° 04:44:50 10° 130° (SE) 1,463 -0.4 -26.1°
Sets 04:46:57 0° 125° (SE) 2,321 0.9 -25.7°
